Location: Newark
(37.3333°N, 6.0167°W)
Time: 12:13:41
(UTC+00:00)

Hubble Space Telescope - Visible Passes

Search period start: 21 March 2019 00:00
Search period end: 31 March 2019 00:00
Orbit: 537 x 540 km, 28.5° (Epoch: 21 March)

Date Brightness Start Highest point End Pass type
(mag) Time Alt. Az. Time Alt. Az. Time Alt. Az.
23 Mar 3.3 20:26:46 10° SSW 20:26:57 11° SSW 20:26:57 11° SSW visible
24 Mar 2.9 20:15:48 10° SSW 20:17:23 15° S 20:17:23 15° S visible
25 Mar 2.5 20:04:56 10° SSW 20:07:45 18° S 20:07:45 18° S visible
26 Mar 2.4 19:54:10 10° SW 19:57:14 20° S 19:58:03 19° SSE visible
27 Mar 2.4 19:43:27 10° SW 19:46:39 22° S 19:48:17 17° SE visible
28 Mar 2.3 19:32:48 10° SW 19:36:05 23° S 19:38:29 14° SE visible
28 Mar 3.6 21:13:35 10° WSW 21:13:50 11° SW 21:13:50 11° SW visible
29 Mar 2.3 19:22:10 10° SW 19:25:30 23° S 19:28:39 11° SE visible
29 Mar 3.3 21:03:10 10° WSW 21:04:00 14° SW 21:04:00 14° SW visible
30 Mar 2.4 19:11:35 10° SW 19:14:56 24° S 19:18:17 10° SE visible
30 Mar 3.1 20:52:48 10° SW 20:54:09 15° SW 20:54:09 15° SW visible
